Starlink 33551

operational
NORAD ID: 62110 Int'l Des: 2024-220 Owner: SPXS Country: US Constellation: starlink
LEOCIRCULAR

Starlink 33551について

説明を読み込み中...

リアルタイム位置

3D地球を読み込み中...

次回通過

高度履歴

Altitude vs Time

uPlot chart will show altitude changes over time

軌道要素

1 62110U 24220Y 25306.00869848 .00019370 00000-0 71218-3 0 9991
2 62110 42.9992 206.6496 0001191 269.3400 90.7315 15.27551796 53669
Epoch: Nov 2, 2025 • Age: 32 hours

現在のステータス

高度 484.2 km
速度 7.63 km/s
衛星直下点 29.90°N, 175.83°E
打ち上げ日 Nov 25, 2024
運用期間 0.9 years
タイプ internet

技術仕様

分類 Payload
質量 530.00 kg
乾燥質量 500.00 kg
総質量 530.00 kg
長さ 0.30 m
直径 4.10 m
スパン 29.00 m
形状 Box + pan
製造者 SPXS
バスタイプ Starlink V2MO
フェーズステータス In Orbit
所有者/国 SPXS/US

大規模コンステレーション

Loading constellations...